Zurück zum Katalog

COSMOS 2251 DEB

AktivLEO
NORAD 34613·DEBRIS·🇷🇺 Russia

Gestartet Jun 16, 1993 von Plesetsk Cosmodrome

Loading…

Nächste Überflüge (nächste 24 Stunden)

TLE

AktuellSource: Space-Track

Epoche: Sep 14, 2026, 10:49 UTC

1 34613U 93036WJ  26257.45070013  .00001392  00000-0  53784-3 0  9995
2 34613  73.9623 137.2192 0109342 267.0783 271.0844 14.27891378903969

Verfolge COSMOS 2251 DEB in Echtzeit mit AllMySat

Download on the App Store